When you browse on this site, cookies collect data to enhance your experience and personalize the content and advertising you see.
Visit our Privacy Policy to learn more. By continuing to use the site, you agree to this use of cookies and data.
  • In Lithuania
  • List of Countries
  • For 7 days
  • Water Temperature
  • Satellite Maps
  • Weather Map
  • Weather Widgets
  • user-avatar
    Login

    Hourly Weather Fier

    Today, 22 February, Friday

    Time Temperature Precipitation Wind Pressure Humidity
    00:00 +10°C° 0 mm 1 mps 766 mmHg 79%
    01:00 +10°C° 0 mm 1 mps 766 mmHg 81%
    02:00 +10°C° 0 mm 1 mps 765 mmHg 81%
    03:00 +10°C° 0 mm 1 mps 765 mmHg 81%
    04:00 +9°C° 0 mm 1 mps 765 mmHg 81%
    05:00 +9°C° 0 mm 1 mps 764 mmHg 80%
    06:00 +9°C° 0 mm 1 mps 764 mmHg 79%
    07:00 +9°C° 0 mm 2 mps 764 mmHg 77%
    08:00 +10°C° 0 mm 2 mps 764 mmHg 72%
    09:00 +13°C° 0 mm 2 mps 763 mmHg 67%
    10:00 +14°C° 0 mm 2 mps 763 mmHg 62%
    11:00 +14°C° 0.3 mm 2 mps 762 mmHg 64%
    12:00 +14°C° 0.3 mm 2 mps 762 mmHg 65%
    13:00 +14°C° 0.3 mm 2 mps 761 mmHg 66%
    14:00 +13°C° 0.1 mm 3 mps 761 mmHg 64%
    15:00 +13°C° 0.1 mm 3 mps 761 mmHg 63%
    16:00 +13°C° 0.1 mm 3 mps 760 mmHg 61%
    17:00 +12°C° 0 mm 3 mps 760 mmHg 65%
    18:00 +10°C° 0 mm 2 mps 760 mmHg 69%
    19:00 +9°C° 0 mm 2 mps 760 mmHg 73%
    20:00 +9°C° 0 mm 2 mps 759 mmHg 74%
    21:00 +10°C° 0 mm 1 mps 759 mmHg 75%
    22:00 +9°C° 0 mm 1 mps 759 mmHg 75%
    23:00 +9°C° 0 mm 1 mps 759 mmHg 75%

    Tomorrow, 23 February, Saturday

    Time Temperature Precipitation Wind Pressure Humidity
    00:00 +9°C° 0 mm 1 mps 758 mmHg 75%
    01:00 +8°C° 0 mm 2 mps 758 mmHg 75%
    02:00 +8°C° 0 mm 2 mps 758 mmHg 74%
    03:00 +8°C° 0 mm 2 mps 758 mmHg 73%
    04:00 +8°C° 0 mm 3 mps 758 mmHg 73%
    05:00 +6°C° 1.2 mm 4 mps 758 mmHg 68%
    06:00 +5°C° 1.2 mm 6 mps 758 mmHg 63%
    07:00 +4°C° 1.2 mm 7 mps 758 mmHg 58%
    08:00 +4°C° 0.5 mm 7 mps 758 mmHg 57%
    09:00 +3°C° 0.5 mm 7 mps 759 mmHg 56%
    10:00 +2°C° 0.5 mm 8 mps 759 mmHg 55%
    11:00 +4°C° 0.2 mm 7 mps 759 mmHg 54%
    12:00 +5°C° 0.2 mm 7 mps 760 mmHg 53%
    13:00 +6°C° 0.2 mm 7 mps 760 mmHg 52%
    14:00 +5°C° 0 mm 7 mps 760 mmHg 52%
    15:00 +5°C° 0 mm 8 mps 761 mmHg 52%
    16:00 +5°C° 0 mm 8 mps 762 mmHg 52%
    17:00 +5°C° 0 mm 8 mps 762 mmHg 53%
    18:00 +4°C° 0 mm 8 mps 763 mmHg 53%
    19:00 +3°C° 0 mm 7 mps 764 mmHg 54%
    20:00 +3°C° 0 mm 7 mps 765 mmHg 54%
    21:00 +2°C° 0 mm 7 mps 765 mmHg 55%
    22:00 +2°C° 0 mm 7 mps 766 mmHg 55%
    23:00 0°C° 0 mm 7 mps 766 mmHg 55%

    Day after tomorrow, 24 February, Sunday

    Time Temperature Precipitation Wind Pressure Humidity
    00:00 0°C° 0 mm 7 mps 766 mmHg 55%
    01:00 0°C° 0 mm 7 mps 766 mmHg 55%
    02:00 +1°C° 0 mm 6 mps 766 mmHg 55%
    03:00 -1°C° 0 mm 6 mps 767 mmHg 56%
    04:00 -1°C° 0 mm 6 mps 767 mmHg 56%
    05:00 -1°C° 0 mm 6 mps 767 mmHg 55%
    06:00 -1°C° 0 mm 6 mps 767 mmHg 55%
    07:00 0°C° 0 mm 5 mps 767 mmHg 55%
    08:00 +2°C° 0 mm 5 mps 768 mmHg 51%
    09:00 +4°C° 0 mm 6 mps 768 mmHg 47%
    10:00 +7°C° 0 mm 6 mps 768 mmHg 44%
    11:00 +8°C° 0 mm 5 mps 768 mmHg 42%
    12:00 +9°C° 0 mm 5 mps 768 mmHg 41%
    13:00 +10°C° 0 mm 5 mps 768 mmHg 40%
    14:00 +10°C° 0 mm 5 mps 768 mmHg 41%
    15:00 +10°C° 0 mm 5 mps 768 mmHg 43%
    16:00 +10°C° 0 mm 5 mps 768 mmHg 44%
    17:00 +8°C° 0 mm 5 mps 768 mmHg 48%
    18:00 +6°C° 0 mm 5 mps 768 mmHg 51%
    19:00 +5°C° 0 mm 5 mps 769 mmHg 54%
    20:00 +4°C° 0 mm 4 mps 769 mmHg 55%
    21:00 +4°C° 0 mm 4 mps 770 mmHg 55%
    22:00 +3°C° 0 mm 4 mps 770 mmHg 56%
    23:00 +3°C° 0 mm 4 mps 770 mmHg 56%

    25 February, Monday

    Time Temperature Precipitation Wind Pressure Humidity
    00:00 +3°C° 0 mm 4 mps 770 mmHg 56%
    01:00 +3°C° 0 mm 4 mps 770 mmHg 57%
    02:00 +1°C° 0 mm 4 mps 770 mmHg 57%
    03:00 +1°C° 0 mm 4 mps 770 mmHg 57%
    04:00 +1°C° 0 mm 4 mps 769 mmHg 57%
    05:00 +1°C° 0 mm 4 mps 769 mmHg 56%
    06:00 +1°C° 0 mm 4 mps 769 mmHg 56%
    07:00 +1°C° 0 mm 4 mps 769 mmHg 56%
    08:00 +3°C° 0 mm 5 mps 769 mmHg 50%
    09:00 +6°C° 0 mm 5 mps 769 mmHg 45%
    10:00 +8°C° 0 mm 5 mps 769 mmHg 39%
    11:00 +10°C° 0 mm 5 mps 769 mmHg 36%
    12:00 +12°C° 0 mm 5 mps 768 mmHg 33%
    13:00 +13°C° 0 mm 5 mps 768 mmHg 30%
    14:00 +13°C° 0 mm 5 mps 767 mmHg 31%
    15:00 +12°C° 0 mm 5 mps 767 mmHg 32%
    16:00 +12°C° 0 mm 5 mps 767 mmHg 32%
    17:00 +9°C° 0 mm 5 mps 767 mmHg 35%
    18:00 +8°C° 0 mm 5 mps 767 mmHg 38%
    19:00 +6°C° 0 mm 5 mps 767 mmHg 40%
    20:00 +5°C° 0 mm 5 mps 767 mmHg 43%
    21:00 +5°C° 0 mm 4 mps 767 mmHg 45%
    22:00 +4°C° 0 mm 4 mps 767 mmHg 47%
    23:00 +4°C° 0 mm 4 mps 767 mmHg 48%

    26 February, Tuesday

    Time Temperature Precipitation Wind Pressure Humidity
    00:00 +4°C° 0 mm 4 mps 767 mmHg 49%
    01:00 +3°C° 0 mm 4 mps 767 mmHg 51%
    02:00 +3°C° 0 mm 4 mps 767 mmHg 52%
    03:00 +3°C° 0 mm 4 mps 767 mmHg 52%
    04:00 +3°C° 0 mm 4 mps 766 mmHg 53%
    05:00 +3°C° 0 mm 4 mps 766 mmHg 53%
    06:00 +3°C° 0 mm 4 mps 767 mmHg 54%
    07:00 +3°C° 0 mm 4 mps 767 mmHg 54%
    08:00 +7°C° 0 mm 3 mps 767 mmHg 48%
    09:00 +9°C° 0 mm 3 mps 767 mmHg 42%
    10:00 +12°C° 0 mm 3 mps 766 mmHg 36%
    11:00 +13°C° 0 mm 4 mps 766 mmHg 34%
    12:00 +15°C° 0 mm 4 mps 766 mmHg 33%
    13:00 +17°C° 0 mm 4 mps 765 mmHg 31%
    14:00 +17°C° 0 mm 4 mps 765 mmHg 34%
    15:00 +16°C° 0 mm 5 mps 765 mmHg 38%
    16:00 +15°C° 0 mm 5 mps 764 mmHg 41%
    17:00 +14°C° 0 mm 5 mps 764 mmHg 48%
    18:00 +12°C° 0 mm 4 mps 764 mmHg 54%
    19:00 +10°C° 0 mm 4 mps 764 mmHg 61%
    20:00 +10°C° 0 mm 4 mps 764 mmHg 62%
    21:00 +9°C° 0 mm 3 mps 764 mmHg 62%
    22:00 +9°C° 0 mm 3 mps 764 mmHg 63%
    23:00 +9°C° 0 mm 2 mps 763 mmHg 62%

    27 February, Wednesday

    Time Temperature Precipitation Wind Pressure Humidity
    00:00 +8°C° 0 mm 2 mps 763 mmHg 60%
    01:00 +8°C° 0 mm 2 mps 762 mmHg 59%
    02:00 +8°C° 0 mm 2 mps 762 mmHg 58%
    03:00 +8°C° 0 mm 1 mps 761 mmHg 57%
    04:00 +8°C° 0 mm 1 mps 761 mmHg 57%
    05:00 +7°C° 0 mm 2 mps 761 mmHg 56%
    06:00 +7°C° 0 mm 2 mps 761 mmHg 56%
    07:00 +7°C° 0 mm 2 mps 761 mmHg 56%
    08:00 +9°C° 0 mm 3 mps 761 mmHg 52%
    09:00 +12°C° 0 mm 4 mps 760 mmHg 47%
    10:00 +14°C° 0 mm 4 mps 760 mmHg 42%
    11:00 +14°C° 0 mm 6 mps 760 mmHg 37%
    12:00 +15°C° 0 mm 8 mps 760 mmHg 32%
    13:00 +16°C° 0 mm 10 mps 760 mmHg 27%
    14:00 +15°C° 0 mm 9 mps 760 mmHg 30%
    15:00 +15°C° 0 mm 9 mps 760 mmHg 32%
    16:00 +13°C° 0 mm 9 mps 760 mmHg 34%
    17:00 +11°C° 0 mm 8 mps 761 mmHg 37%
    18:00 +10°C° 0 mm 7 mps 761 mmHg 39%
    19:00 +9°C° 0 mm 6 mps 762 mmHg 42%
    20:00 +8°C° 0 mm 6 mps 762 mmHg 45%
    21:00 +7°C° 0 mm 5 mps 763 mmHg 48%
    22:00 +6°C° 0 mm 5 mps 763 mmHg 52%
    23:00 +6°C° 0 mm 4 mps 763 mmHg 52%
    Show more